Location: Clifton Park
(41.4873°N, 81.8024°W)
Time: 01:11:03
(UTC+00:00)

NOSS 3-2 (A) - Pass Details

Date: 21 January 2020
Orbit: 809 x 1399 km, 63.4° (Epoch: 20 February)

Event Time Altitude Azimuth Distance (km) Brightness Sun altitude
Exits shadow 10:41:47 22° 329° (NNW) 2,371 5.2 -23.5°
Maximum altitude 10:47:09 79° 54° (NE) 1,319 4.1 -22.5°
Drops below altitude 10° 10:55:39 10° 142° (SE) 3,438 7.0 -20.9°
Sets 10:58:38 0° 143° (SE) 4,435 7.6 -20.3°
